�������l�o���
Date,Time,MP-1(��Sv/h),MP-2(��Sv/h),MP-3(��Sv/h),MP-4(��Sv/h),MP-5(��Sv/h),MP-6(��Sv/h),MP-7(��Sv/h),����,����(m/s),���J
2023/09/12,00:00,0.145,0.127,0.214,0.202,0.205,0.116,0.074,��,6.4,��
2023/09/12,00:10,0.145,0.126,0.214,0.204,0.208,0.116,0.074,��쓌,5.1,��
2023/09/12,00:20,0.143,0.127,0.215,0.202,0.209,0.117,0.075,��,4.6,�L
2023/09/12,00:30,0.144,0.127,0.215,0.200,0.207,0.116,0.074,��,5.0,��
2023/09/12,00:40,0.145,0.126,0.213,0.201,0.205,0.117,0.074,��,5.9,�L
2023/09/12,00:50,0.144,0.126,0.213,0.204,0.208,0.116,0.074,��,6.0,�L
2023/09/12,01:00,0.143,0.127,0.217,0.202,0.208,0.116,0.074,��,5.4,��
2023/09/12,01:10,0.145,0.127,0.214,0.200,0.206,0.117,0.074,��,5.0,��
2023/09/12,01:20,0.145,0.125,0.212,0.201,0.206,0.117,0.074,��,4.7,��
2023/09/12,01:30,0.144,0.127,0.214,0.202,0.208,0.116,0.074,��,4.2,��
2023/09/12,01:40,0.143,0.127,0.216,0.202,0.209,0.116,0.074,��,4.3,��
2023/09/12,01:50,0.144,0.126,0.214,0.200,0.207,0.116,0.074,��쓌,4.8,��
2023/09/12,02:00,0.145,0.125,0.213,0.202,0.207,0.117,0.074,��,4.8,��
2023/09/12,02:10,0.144,0.127,0.214,0.203,0.207,0.116,0.074,��,4.2,��
2023/09/12,02:20,0.143,0.127,0.215,0.203,0.210,0.115,0.074,��,3.6,��
2023/09/12,02:30,0.142,0.127,0.213,0.201,0.208,0.116,0.075,��,3.7,��
2023/09/12,02:40,0.144,0.126,0.213,0.201,0.206,0.117,0.074,��,4.7,��
2023/09/12,02:50,0.145,0.127,0.215,0.203,0.206,0.116,0.073,��,5.7,��
2023/09/12,03:00,0.144,0.127,0.215,0.201,0.210,0.116,0.075,��,5.4,��
2023/09/12,03:10,0.143,0.125,0.213,0.201,0.208,0.116,0.074,��,5.2,��
2023/09/12,03:20,0.145,0.127,0.214,0.203,0.206,0.116,0.074,��,5.1,��
2023/09/12,03:30,0.145,0.127,0.215,0.203,0.209,0.117,0.074,��,4.7,��
2023/09/12,03:40,0.144,0.126,0.214,0.202,0.208,0.116,0.074,��,4.6,��
2023/09/12,03:50,0.143,0.126,0.212,0.199,0.208,0.116,0.074,��,4.8,��
2023/09/12,04:00,0.146,0.127,0.214,0.203,0.205,0.117,0.074,��,5.0,��
2023/09/12,04:10,0.145,0.127,0.215,0.202,0.209,0.117,0.074,��,4.7,��
2023/09/12,04:20,0.144,0.126,0.212,0.201,0.207,0.116,0.074,��,4.9,��
2023/09/12,04:30,0.144,0.127,0.214,0.203,0.206,0.116,0.075,��쓌,4.7,��
2023/09/12,04:40,0.145,0.127,0.216,0.204,0.204,0.117,0.074,��,4.7,��
2023/09/12,04:50,0.144,0.125,0.214,0.202,0.209,0.117,0.074,��,4.1,��
2023/09/12,05:00,0.144,0.127,0.212,0.201,0.208,0.116,0.075,��,3.6,��
2023/09/12,05:10,0.146,0.127,0.216,0.205,0.205,0.117,0.074,��,3.4,��
2023/09/12,05:20,0.145,0.126,0.215,0.203,0.208,0.117,0.074,��,4.0,��
2023/09/12,05:30,0.144,0.127,0.212,0.201,0.209,0.116,0.075,��,4.4,��
2023/09/12,05:40,0.146,0.127,0.215,0.202,0.207,0.117,0.074,��,4.6,��
2023/09/12,05:50,0.145,0.127,0.213,0.204,0.206,0.117,0.074,��쐼,4.6,��
2023/09/12,06:00,0.144,0.127,0.212,0.201,0.208,0.117,0.074,��,5.2,��
2023/09/12,06:10,0.144,0.127,0.215,0.201,0.207,0.116,0.074,��쐼,5.2,��
2023/09/12,06:20,0.145,0.125,0.215,0.203,0.205,0.116,0.074,��쐼,4.9,��
2023/09/12,06:30,0.144,0.126,0.213,0.202,0.208,0.117,0.074,��쐼,4.1,��
2023/09/12,06:40,0.143,0.128,0.212,0.201,0.210,0.116,0.074,��쐼,4.3,��
2023/09/12,06:50,0.144,0.126,0.215,0.200,0.208,0.115,0.074,��,3.1,��
2023/09/12,07:00,0.146,0.127,0.215,0.204,0.206,0.116,0.073,��,2.8,��
2023/09/12,07:10,0.144,0.126,0.212,0.202,0.205,0.118,0.074,��쓌,2.1,��
2023/09/12,07:20,0.144,0.128,0.213,0.202,0.208,0.117,0.074,��쓌,2.3,��
2023/09/12,07:30,0.143,0.126,0.212,0.201,0.209,0.116,0.074,��,3.1,��
2023/09/12,07:40,0.143,0.126,0.215,0.200,0.207,0.116,0.074,��,4.0,��
2023/09/12,07:50,0.145,0.126,0.216,0.200,0.207,0.116,0.073,��,3.9,��
2023/09/12,08:00,0.145,0.125,0.214,0.200,0.205,0.117,0.074,��,4.0,��
2023/09/12,08:10,0.145,0.126,0.213,0.202,0.205,0.117,0.073,��,3.9,��
2023/09/12,08:20,0.143,0.126,0.213,0.204,0.205,0.117,0.073,��,3.6,��
2023/09/12,08:30,0.144,0.125,0.214,0.203,0.206,0.116,0.075,��쓌,3.8,��
2023/09/12,08:40,0.144,0.125,0.214,0.203,0.204,0.116,0.074,��,3.6,��
2023/09/12,08:50,0.144,0.125,0.215,0.202,0.206,0.116,0.075,��쓌,3.9,��
2023/09/12,09:00,0.144,0.127,0.215,0.201,0.207,0.116,0.075,��쓌,4.8,��
2023/09/12,09:10,0.145,0.126,0.213,0.202,0.207,0.117,0.074,��쓌,4.8,��
2023/09/12,09:20,0.144,0.126,0.215,0.202,0.207,0.116,0.073,��쓌,5.1,��
2023/09/12,09:30,0.144,0.126,0.214,0.202,0.207,0.117,0.074,��쓌,5.5,��
2023/09/12,09:40,0.144,0.127,0.215,0.203,0.208,0.117,0.075,��쓌,5.4,��
2023/09/12,09:50,0.145,0.126,0.214,0.203,0.208,0.117,0.075,��쓌,5.3,��
2023/09/12,10:00,0.144,0.127,0.215,0.203,0.208,0.117,0.075,��쓌,6.9,��
2023/09/12,10:10,0.145,0.127,0.214,0.202,0.208,0.118,0.075,��쓌,6.7,��
2023/09/12,10:20,0.145,0.127,0.215,0.201,0.208,0.117,0.075,��쓌,6.0,��
2023/09/12,10:30,0.145,0.127,0.216,0.202,0.207,0.118,0.075,��쓌,6.1,��
2023/09/12,10:40,0.146,0.128,0.216,0.203,0.208,0.116,0.075,��쓌,6.1,��
2023/09/12,10:50,0.146,0.127,0.215,0.202,0.208,0.117,0.074,��쓌,6.1,��
2023/09/12,11:00,0.145,0.127,0.215,0.202,0.207,0.116,0.075,��쓌,6.5,��
2023/09/12,11:10,0.146,0.127,0.214,0.202,0.208,0.117,0.075,��쓌,5.7,��
2023/09/12,11:20,0.145,0.128,0.216,0.202,0.208,0.117,0.075,��쓌,6.5,��
2023/09/12,11:30,0.145,0.127,0.215,0.203,0.208,0.117,0.075,��쓌,5.6,��
2023/09/12,11:40,0.145,0.127,0.215,0.202,0.207,0.117,0.074,��쓌,6.7,��
2023/09/12,11:50,0.145,0.128,0.215,0.203,0.209,0.117,0.074,��쓌,6.8,��
2023/09/12,12:00,0.145,0.127,0.215,0.203,0.208,0.118,0.075,��쓌,7.7,��
2023/09/12,12:10,0.146,0.127,0.216,0.205,0.208,0.117,0.075,��쓌,7.5,��
2023/09/12,12:20,0.146,0.127,0.216,0.204,0.207,0.117,0.075,��쓌,6.8,��
2023/09/12,12:30,0.145,0.127,0.215,0.203,0.207,0.117,0.075,�쓌,7.1,��
2023/09/12,12:40,0.145,0.127,0.215,0.204,0.208,0.117,0.074,��쓌,7.3,��
2023/09/12,12:50,0.146,0.128,0.216,0.203,0.208,0.117,0.075,��쓌,7.2,��
2023/09/12,13:00,0.145,0.127,0.215,0.203,0.209,0.117,0.075,��쓌,7.0,��
2023/09/12,13:10,0.146,0.127,0.216,0.203,0.208,0.116,0.075,��쓌,7.5,��
2023/09/12,13:20,0.146,0.128,0.216,0.204,0.208,0.116,0.075,��쓌,7.8,��
2023/09/12,13:30,0.145,0.128,0.216,0.203,0.209,0.117,0.075,��쓌,7.1,��
2023/09/12,13:40,0.145,0.127,0.216,0.203,0.208,0.117,0.075,��쓌,7.7,��
2023/09/12,13:50,0.145,0.127,0.216,0.205,0.208,0.118,0.074,��쓌,7.6,��
2023/09/12,14:00,0.146,0.128,0.216,0.204,0.208,0.117,0.076,��쓌,7.9,��
2023/09/12,14:10,0.145,0.128,0.215,0.203,0.207,0.117,0.075,��쓌,8.1,��
2023/09/12,14:20,0.146,0.128,0.216,0.203,0.210,0.116,0.074,��쓌,8.4,��
2023/09/12,14:30,0.146,0.128,0.215,0.203,0.209,0.118,0.075,��쓌,7.7,��
2023/09/12,14:40,0.146,0.127,0.215,0.203,0.210,0.117,0.075,��쓌,7.1,��
2023/09/12,14:50,0.146,0.127,0.215,0.204,0.209,0.117,0.075,��쓌,7.0,��
2023/09/12,15:00,0.144,0.128,0.215,0.203,0.207,0.118,0.075,��쓌,6.5,��
2023/09/12,15:10,0.144,0.128,0.217,0.203,0.208,0.117,0.075,��쓌,5.4,��
2023/09/12,15:20,0.144,0.127,0.215,0.204,0.208,0.117,0.075,��,6.3,��
2023/09/12,15:30,0.145,0.128,0.214,0.202,0.207,0.117,0.074,��쓌,6.0,��
2023/09/12,15:40,0.145,0.127,0.214,0.203,0.209,0.118,0.075,��,6.8,��
2023/09/12,15:50,0.144,0.127,0.214,0.203,0.208,0.117,0.075,��쓌,6.7,��
2023/09/12,16:00,0.145,0.127,0.214,0.202,0.209,0.118,0.075,��쓌,7.1,��
2023/09/12,16:10,0.144,0.128,0.214,0.204,0.208,0.116,0.075,��,7.8,��
2023/09/12,16:20,0.145,0.126,0.218,0.207,0.208,0.116,0.074,��쓌,7.6,��
2023/09/12,16:30,0.144,0.126,0.218,0.204,0.208,0.117,0.075,��,8.2,��
2023/09/12,16:40,0.144,0.128,0.217,0.204,0.208,0.116,0.074,��쓌,7.0,��
2023/09/12,16:50,0.144,0.128,0.215,0.203,0.208,0.117,0.074,��,6.8,��
2023/09/12,17:00,0.146,0.128,0.215,0.202,0.207,0.118,0.075,��,7.6,��
2023/09/12,17:10,0.147,0.128,0.217,0.205,0.208,0.117,0.075,��,8.2,��
2023/09/12,17:20,0.145,0.127,0.218,0.205,0.206,0.117,0.075,��,6.5,��
2023/09/12,17:30,0.145,0.128,0.216,0.204,0.209,0.117,0.075,��,6.4,��
2023/09/12,17:40,0.144,0.128,0.215,0.203,0.210,0.117,0.074,��,6.6,��
2023/09/12,17:50,0.146,0.127,0.216,0.204,0.211,0.117,0.074,��,7.5,��
2023/09/12,18:00,0.147,0.128,0.218,0.206,0.208,0.118,0.075,��,7.6,��
2023/09/12,18:10,0.146,0.128,0.216,0.205,0.207,0.118,0.075,��,7.2,��
2023/09/12,18:20,0.144,0.129,0.214,0.202,0.211,0.118,0.075,��,7.8,��
2023/09/12,18:30,0.145,0.128,0.217,0.204,0.210,0.117,0.074,��쓌,6.4,��
2023/09/12,18:40,0.147,0.126,0.218,0.206,0.208,0.118,0.075,��,7.6,��
2023/09/12,18:50,0.145,0.129,0.216,0.205,0.205,0.118,0.075,��,6.6,��
2023/09/12,19:00,0.144,0.128,0.214,0.203,0.212,0.117,0.074,��,6.3,��
2023/09/12,19:10,0.146,0.128,0.218,0.205,0.209,0.117,0.075,��,5.5,��
2023/09/12,19:20,0.147,0.127,0.217,0.204,0.207,0.117,0.075,��,5.4,��
2023/09/12,19:30,0.145,0.128,0.214,0.204,0.209,0.118,0.075,��,6.0,��
2023/09/12,19:40,0.145,0.127,0.218,0.203,0.210,0.117,0.075,��,5.9,��
2023/09/12,19:50,0.146,0.127,0.217,0.206,0.209,0.117,0.074,��,5.4,��
2023/09/12,20:00,0.145,0.129,0.216,0.204,0.207,0.117,0.076,��,5.6,��
2023/09/12,20:10,0.145,0.127,0.216,0.202,0.210,0.119,0.075,��,6.6,��
2023/09/12,20:20,0.146,0.128,0.216,0.205,0.210,0.117,0.074,��,6.0,��
2023/09/12,20:30,0.146,0.128,0.216,0.206,0.207,0.117,0.075,��,6.2,��
2023/09/12,20:40,0.146,0.127,0.216,0.203,0.209,0.118,0.075,��,6.2,��
2023/09/12,20:50,0.146,0.127,0.217,0.204,0.211,0.119,0.075,��,6.0,��
2023/09/12,21:00,0.147,0.129,0.216,0.207,0.209,0.117,0.075,��,5.0,��
2023/09/12,21:10,0.146,0.128,0.216,0.206,0.207,0.117,0.075,��,4.9,��
2023/09/12,21:20,0.145,0.127,0.217,0.204,0.210,0.117,0.076,��,5.5,��
2023/09/12,21:30,0.147,0.128,0.217,0.207,0.209,0.117,0.075,��,5.6,��
2023/09/12,21:40,0.145,0.127,0.215,0.205,0.207,0.117,0.076,��,5.1,��
2023/09/12,21:50,0.145,0.129,0.217,0.203,0.210,0.118,0.075,��,5.0,��
2023/09/12,22:00,0.147,0.128,0.216,0.205,0.210,0.119,0.075,��,5.2,��
2023/09/12,22:10,0.146,0.128,0.217,0.206,0.208,0.118,0.075,��,5.5,��
2023/09/12,22:20,0.145,0.128,0.219,0.203,0.209,0.118,0.076,��,6.3,��
2023/09/12,22:30,0.146,0.128,0.217,0.205,0.212,0.118,0.075,��,5.1,��
2023/09/12,22:40,0.147,0.128,0.218,0.205,0.209,0.117,0.075,��,5.8,��
2023/09/12,22:50,0.145,0.128,0.219,0.204,0.206,0.119,0.076,��,5.6,��
2023/09/12,23:00,0.146,0.130,0.216,0.205,0.210,0.119,0.075,��,5.8,��
2023/09/12,23:10,0.147,0.127,0.217,0.206,0.210,0.117,0.075,��,4.3,��
2023/09/12,23:20,0.147,0.129,0.218,0.204,0.209,0.118,0.076,��,3.8,��
2023/09/12,23:30,0.146,0.128,0.216,0.206,0.212,0.118,0.075,��쐼,2.7,��
2023/09/12,23:40,0.148,0.127,0.218,0.206,0.210,0.118,0.076,��쐼,2.1,��
2023/09/12,23:50,0.145,0.129,0.217,0.204,0.207,0.118,0.076,��쐼,1.7,��
